Date,Time,Air Temperature,Dewpoint,Windchill,Heat Index,RH,3m Max Wind Speed,3m Mean Wind Speed,3m Wind Direction,Rain,Solar Radiation
,,F,F,F,F,%,MPH,MPH,deg,in,MJ/m^2
2024-04-15,13:15,69.1,-5.2,69.1,69.1,4.9,29.2,23,211.7,0.0,0.3132884
2024-04-15,13:20,67.8,-3.1,67.8,67.8,5.7,31.7,25.2,210.3,0.0,0.3122851
2024-04-15,13:25,68.3,-3.4,68.3,68.3,5.5,30.3,23.2,226.7,0.0,0.311915
2024-04-15,13:30,68.6,-4.5,68.6,68.6,5.1,28.7,21.5,238.9,0.0,0.3110407
2024-04-15,13:35,68.5,-4.5,68.5,68.5,5.2,29.8,23.8,221.9,0.0,0.3100061
2024-04-15,13:40,67.7,-6.3,67.7,67.7,4.9,37.8,29,220.7,0.0,0.308585
2024-04-15,13:45,67.9,-5.2,67.9,67.9,5.1,31.9,25.6,227.9,0.0,0.3053189
2024-04-15,13:50,69.3,-6,69.3,69.3,4.7,32.1,22.3,226.6,0.0,0.3035481
2024-04-15,13:55,68.7,-3.2,68.7,68.7,5.5,33,24.3,222.5,0.0,0.3026748
2024-04-15,14:00,68.6,-4.1,68.6,68.6,5.2,34,24.5,239.2,0.0,0.3005073
2024-04-15,14:05,68.8,-6,68.8,68.8,4.8,30.1,23,208.8,0.0,0.2986483
2024-04-15,14:10,68.8,-4,68.8,68.8,5.2,33.5,25.3,215.2,0.0,0.2966583
2024-04-15,14:15,70.1,-3.4,70.1,70.1,5.1,31.9,23,215.1,0.0,0.2940811
2024-04-15,14:20,68.2,-7,68.2,68.2,4.6,34,26,212.1,0.0,0.2939463
2024-04-15,14:25,69.3,-5.1,69.3,69.3,4.9,29.4,22.3,208.9,0.0,0.2905673
2024-04-15,14:30,69,-7.7,69.0,69,4.4,34.4,23.8,205,0.0,0.2874592
2024-04-15,14:35,69.4,-5.8,69.4,69.4,4.7,30.5,24.2,225.8,0.0,0.2820469
2024-04-15,14:40,70,-4.7,70.0,70,4.9,28.9,21.8,228,0.0,0.2804368
2024-04-15,14:45,69.3,-6,69.3,69.3,4.7,29.8,22.4,228.4,0.0,0.2781599
2024-04-15,14:50,69.6,-2.2,69.6,69.6,5.6,31.2,23.1,223,0.0,0.2744762
2024-04-15,14:55,69.2,-4.8,69.2,69.2,5.0,34.8,25.8,210,0.0,0.2723032
2024-04-15,15:00,69.4,-4.2,69.4,69.4,5.1,30.5,22.1,222.2,0.0,0.2688549
2024-04-15,15:05,69.1,-2.2,69.1,69.1,5.7,32.1,25.1,226.6,0.0,0.2633146
2024-04-15,15:10,68.8,-2.8,68.8,68.8,5.6,35.8,26.7,216.2,0.0,0.2603037
2024-04-15,15:15,69.7,-2,69.7,69.7,5.6,33,24,221,0.0,0.2547483
2024-04-15,15:20,69.3,-2.7,69.3,69.3,5.5,36.2,26.4,229.9,0.0,0.2529036
2024-04-15,15:25,69.7,-3.9,69.7,69.7,5.1,34.8,25.3,214.7,0.0,0.2480815
2024-04-15,15:30,69.6,-5.9,69.6,69.6,4.7,34.4,26.2,226.5,0.0,0.2436826
2024-04-15,15:35,69.3,-6.8,69.3,69.3,4.5,36.9,27.6,234.1,0.0,0.2418087
2024-04-15,15:40,68.5,-7.3,68.5,68.5,4.5,33.5,29,230.7,0.0,0.2381457
2024-04-15,15:45,69.1,-7,69.1,69.1,4.5,35.8,28.6,237.2,0.0,0.2334128
2024-04-15,15:50,68.7,-6.5,68.7,68.7,4.7,34.4,27.2,239,0.0,0.22937
2024-04-15,15:55,69.4,-6.6,69.4,69.4,4.5,29.9,22.1,237,0.0,0.2243227
2024-04-15,16:00,69,-6.4,69.0,69,4.6,32.1,25,233.8,0.0,0.2207625
2024-04-15,16:05,68,-5.4,68.0,68,5.0,34.9,26.2,226.5,0.0,0.2153901
2024-04-15,16:10,67.9,-5.9,67.9,67.9,4.9,33.7,28.2,235.4,0.0,0.2114126
2024-04-15,16:15,68.5,-4.5,68.5,68.5,5.2,32.3,25.6,238.3,0.0,0.2061499
2024-04-15,16:20,68,-3.6,68.0,68,5.5,36.7,28.8,219.2,0.0,0.2032884
2024-04-15,16:25,68.3,-4.9,68.3,68.3,5.1,34,25.1,231.5,0.0,0.1984264
2024-04-15,16:30,67.6,-3.9,67.6,67.6,5.5,31.2,26.2,228.2,0.0,0.1918324
2024-04-15,16:35,67.4,-4.6,67.4,67.4,5.4,40.1,30.2,226.8,0.0,0.1874384
2024-04-15,16:40,66.9,-4,66.9,66.9,5.6,43.9,31.5,229.5,0.0,0.1822557
2024-04-15,16:45,67.1,-3.5,67.1,67.1,5.7,34.6,27.7,231.2,0.0,0.177452
2024-04-15,16:50,66.8,-2.7,66.8,66.8,6.0,32.3,26.1,234.1,0.0,0.1711577
2024-04-15,16:55,66.3,-1.5,66.3,66.3,6.4,36.7,29.3,215.8,0.0,0.1639449
2024-04-15,17:00,66.7,-3.3,66.7,66.7,5.8,31.7,24.9,220,0.0,0.1590812
2024-04-15,17:05,66.2,-0.9,66.2,66.2,6.6,35.3,27.9,213.8,0.0,0.1553319
2024-04-15,17:10,66.6,-0.3,66.6,66.6,6.7,28.3,19.8,214.7,0.0,0.1474834
2024-04-15,17:15,66.1,-0.3,66.1,66.1,6.9,32.8,25.2,217.6,0.0,0.1425465
2024-04-15,17:20,66.1,2.5,66.1,66.1,7.8,30.5,23.9,228.7,0.0,0.1380815
2024-04-15,17:25,65.2,1.9,65.2,65.2,7.9,32.1,22.8,261.1,0.0,0.1326161
2024-04-15,17:30,65.7,1.1,65.7,65.7,7.4,32.4,20.3,241.1,0.0,0.1267856
2024-04-15,17:35,64.6,1.5,64.6,64.6,7.9,29.9,23,248.9,0.0,0.1214744
2024-04-15,17:40,64.7,2.1,64.7,64.7,8.0,28.7,23.7,248.2,0.0,0.1162686
2024-04-15,17:45,64.3,2.4,64.3,64.3,8.3,33.2,25.2,247.6,0.0,0.111313
2024-04-15,17:50,64,2,64.0,64,8.3,28,22.8,233.6,0.0,0.1053669
2024-04-15,17:55,63.6,1.7,63.6,63.6,8.2,30.8,24.3,240.2,0.0,0.1010018
2024-04-15,18:00,63.3,0.9,63.3,63.3,8.0,36.7,25.2,241.6,0.0,0.09501997
2024-04-15,18:05,62.8,0.7,62.8,62.8,8.1,32.1,25.1,244.8,0.0,0.08275362
2024-04-15,18:10,62.5,0.3,62.5,62.5,8.0,30.3,23.4,238,0.0,0.07257117
2024-04-15,18:15,62.6,0,62.6,62.6,7.9,27.4,21.4,237.9,0.0,0.0741272
2024-04-15,18:20,62,0.1,62.0,62,8.1,33.2,27.1,229.7,0.0,0.07254907
2024-04-15,18:25,61.1,7.3,61.1,61.1,11.6,26.2,17.8,252.5,0.0,0.06832066
2024-04-15,18:30,59.2,6.7,59.2,59.2,12.0,28.3,21.8,266.1,0.0,0.06355852
2024-04-15,18:35,58.7,6.2,58.7,58.7,12,26,20.4,269.5,0.0,0.05807506
2024-04-15,18:40,58.1,4.8,58.1,58.1,11.6,27.6,22.6,270.5,0.0,0.05356093
2024-04-15,18:45,57.7,3.2,57.7,57.7,10.9,26.4,21.1,265.2,0.0,0.04904135
2024-04-15,18:50,57.3,3.3,57.3,57.3,11.1,31.5,20,260.2,0.0,0.04463361
2024-04-15,18:55,57.1,2.8,57.1,57.1,10.9,26.9,19.6,272,0.0,0.03968078
2024-04-15,19:00,56.6,1.9,56.6,56.6,10.6,29.6,20.8,268.3,0.0,0.03353668
2024-04-15,19:05,56.1,1.6,56.1,56.1,10.7,30.8,22.5,261.1,0.0,0.0267735
2024-04-15,19:10,55.8,1.5,55.8,55.8,10.8,24.2,19.4,273.1,0.0,0.02164331
2024-04-15,19:15,55.5,2.9,55.5,55.5,11.6,24.4,17.4,268.3,0.0,0.01726671
2024-04-15,19:20,54.9,3.7,54.9,54.9,12.3,29.6,21.2,268.9,0.0,0.01324259
2024-04-15,19:25,54.3,3.8,54.3,54.3,12.7,25.8,21.3,270.6,0.0,0.008946359
2024-04-15,19:30,53.8,4.6,53.8,53.8,13.3,23.3,17.5,269.9,0.0,0.00427319
2024-04-15,19:35,53.5,5.1,53.5,53.5,13.8,24.8,19.2,270.4,0.0,0.00175443
2024-04-15,19:40,53.1,5.2,53.1,53.1,14.1,21.7,17.1,271,0.0,0.0006011599
2024-04-15,19:45,53.1,5.2,53.1,53.1,14.1,26.9,19.7,267,0.0,0.00010273
2024-04-15,19:50,52.9,5.1,52.9,52.9,14.1,23.3,17.3,269.8,0.0,-0.00017378
2024-04-15,19:55,52.9,5.5,52.9,52.9,14.4,25.3,17.9,265.6,0.0,-0.00031933
2024-04-15,20:00,52.2,5.6,52.2,52.2,14.8,24.9,16.5,266.6,0.0,-0.00038981
2024-04-15,20:05,52.2,6,52.2,52.2,15.1,22.8,17.4,275.5,0.0,-0.00039789
2024-04-15,20:10,52.1,6.2,52.1,52.1,15.3,23.5,17.1,260.2,0.0,-0.00041083
2024-04-15,20:15,51.8,6,51.8,51.8,15.3,22.8,16.7,261.1,0.0,-0.00041543
2024-04-15,20:20,51.6,5.4,51.6,51.6,15.0,26.2,17.1,262.6,0.0,-0.00042833
2024-04-15,20:25,51.7,5.3,51.7,51.7,14.9,23.5,18.3,264,0.0,-0.00039771
2024-04-15,20:30,51.1,5.3,51.1,51.1,15.3,18.9,14.3,257.7,0.0,-0.00044729
2024-04-15,20:35,50.7,4.6,50.7,50.7,15.0,23.5,14.3,263.9,0.0,-0.00043397
2024-04-15,20:40,51.1,4.7,51.1,51.1,14.8,24.4,17.1,266.3,0.0,-0.00040694
2024-04-15,20:45,51.1,4.7,51.1,51.1,14.8,23.3,18.8,259.8,0.0,-0.00040259
2024-04-15,20:50,51.2,4.6,51.2,51.2,14.7,24.9,19.3,265.8,0.0,-0.00040364
2024-04-15,20:55,51.2,3.9,51.2,51.2,14.2,23.5,20.4,267.1,0.0,-0.00040854
2024-04-15,21:00,51.3,3.5,51.3,51.3,13.9,26.4,20.2,266.3,0.0,-0.00040683
2024-04-15,21:05,50.6,3.7,50.6,50.6,14.4,23.7,16.4,262.5,0.0,-0.00044978
2024-04-15,21:10,50.7,3,50.7,50.7,13.9,20.8,17.9,261.2,0.0,-0.00041836
2024-04-15,21:15,51,3,51.0,51,13.7,27.2,20.7,261.2,0.0,-0.00040978
2024-04-15,21:20,50.7,3.2,50.7,50.7,14.0,23,19,267.4,0.0,-0.00042169
2024-04-15,21:25,50.6,3.3,50.6,50.6,14.1,23.3,18.9,260.5,0.0,-0.00042473
2024-04-15,21:30,49.9,3.1,47.7,49.9,14.4,21.5,16.1,263,0.0,-0.00043873
2024-04-15,21:35,49.7,3.4,49.0,49.7,14.6,24.2,15.7,259.2,0.0,-0.00042612
2024-04-15,21:40,49.6,3.1,47.4,49.6,14.5,21.2,14.2,264.1,0.0,-0.00044538
2024-04-15,21:45,49.7,3.3,49.4,49.7,14.6,19.8,14,256.1,0.0,-0.00041289
2024-04-15,21:50,49.6,3.5,48.3,49.6,14.8,19,12.7,248,0.0,-0.00042693
2024-04-15,21:55,49.9,3.4,48.4,49.9,14.6,20.6,14.5,247,0.0,-0.00040784
2024-04-15,22:00,49.7,4,48.9,49.7,15.1,16.2,12.3,249.8,0.0,-0.00042441
2024-04-15,22:05,49.3,3.9,48.4,49.3,15.3,17.2,12.4,257.8,0.0,-0.00043277
2024-04-15,22:10,49.1,4.1,47.8,49.1,15.5,18.7,11,246.1,0.0,-0.00043675
2024-04-15,22:15,49.4,4.4,49.4,49.4,15.5,16,11.4,247.3,0.0,-0.00041231
2024-04-15,22:20,49.2,4.5,47.9,49.2,15.7,15.3,10.1,253.5,0.0,-0.00043765
2024-04-15,22:25,49.6,4.6,48.1,49.6,15.5,18.7,12.8,250,0.0,-0.00041016
2024-04-15,22:30,49.6,4.6,49.6,49.6,15.6,18.1,12.5,248.5,0.0,-0.00040413
2024-04-15,22:35,48.8,4.7,48.8,48.8,16.1,11.7,9.3,250.1,0.0,-0.0004435
2024-04-15,22:40,49.1,4.6,49.1,49.1,15.8,15.5,11.8,251.3,0.0,-0.00040683
2024-04-15,22:45,48.6,4.4,47.5,48.6,16.0,14.4,10.9,248.8,0.0,-0.00042349
2024-04-15,22:50,48.8,4.6,48.1,48.8,16.0,18.5,13,252,0.0,-0.00040414
2024-04-15,22:55,48.5,4.4,47.2,48.5,16.1,14.6,11.5,250.9,0.0,-0.00042672
2024-04-15,23:00,48.8,4.6,47.7,48.8,16.0,19.6,14.4,252.2,0.0,-0.00038263
2024-04-15,23:05,48.7,4.9,47.8,48.7,16.4,16.2,13.1,248,0.0,-0.00040144
2024-04-15,23:10,48.4,5,46.4,48.4,16.6,18.1,11.4,243.8,0.0,-0.00041291
2024-04-15,23:15,48.7,5.5,47.6,48.7,16.8,15.8,13.2,245.5,0.0,-0.00038405
2024-04-15,23:20,48.7,6,48.1,48.7,17.2,17.8,13.6,248,0.0,-0.00039068
2024-04-15,23:25,48.6,6.9,46.8,48.6,18.0,19.8,14.3,249.6,0.0,-0.00039759
2024-04-15,23:30,48.8,6.9,48.3,48.8,17.9,19.8,14.8,251.9,0.0,-0.00037771
2024-04-15,23:35,48.5,7.2,47.8,48.5,18.3,18.9,12.7,249.6,0.0,-0.00040891
2024-04-15,23:40,48.4,7.2,47.5,48.4,18.4,19.8,12.5,248.7,0.0,-0.0003999
2024-04-15,23:45,48.4,7.2,48.4,48.4,18.4,15.6,12.6,255.8,0.0,-0.00039979
2024-04-15,23:50,48.2,7.7,46.1,48.2,18.8,18.1,11.9,249.8,0.0,-0.00041376
2024-04-15,23:55,48.3,7.7,47.2,48.3,18.8,15.8,12.6,257.5,0.0,-0.00040052
2024-04-16,00:00,48.1,8.1,48.1,48.1,19.3,17.2,12,250.7,0.0,-0.00040373
2024-04-16,00:05,47.9,8.2,47.9,47.9,19.5,15.5,11.1,252.2,0.0,-0.00040512
2024-04-16,00:10,47.5,7.8,47.5,47.5,19.5,16.5,10.8,271.1,0.0,-0.00041562
2024-04-16,00:15,45.6,7.2,45.6,45.6,20.4,11.9,9.3,288.8,0.0,-0.00045241
2024-04-16,00:20,45.2,7.4,45.2,45.2,21.0,13.3,9,273.7,0.0,-0.00042071
2024-04-16,00:25,44.4,7.7,44.4,44.4,21.9,8.5,6.7,280.6,0.0,-0.00042811
2024-04-16,00:30,43.8,7.6,43.8,43.8,22.3,9.6,6.6,278.1,0.0,-0.00041178
2024-04-16,00:35,43.6,8,43.6,43.6,22.8,8.8,6.7,280.7,0.0,-0.00039187
2024-04-16,00:40,43.8,8.2,43.8,43.8,22.8,10.8,8.1,275.1,0.0,-0.00037549
2024-04-16,00:45,44.1,8.3,44.1,44.1,22.7,12.4,9.3,272.3,0.0,-0.00036797
2024-04-16,00:50,43.5,8.3,43.5,43.5,23.3,11.3,8.2,272.6,0.0,-0.00039363
2024-04-16,00:55,43.2,8.6,43.2,43.2,23.8,9.9,8.1,264.2,0.0,-0.00038981
2024-04-16,01:00,43,8.9,43.0,43,24.3,10.1,8.1,259.4,0.0,-0.00037622
2024-04-16,01:05,42.5,9.3,42.5,42.5,25.3,9,7.2,256.7,0.0,-0.00038606
2024-04-16,01:10,42.7,10,42.7,42.7,25.8,9.2,7.4,259.1,0.0,-0.00037061
2024-04-16,01:15,42.7,11.4,42.7,42.7,27.5,11.2,7.9,259.7,0.0,-0.00036602
2024-04-16,01:20,43.2,11.9,43.2,43.2,27.5,11.3,8.8,257.8,0.0,-0.00034539
2024-04-16,01:25,42.9,12.6,42.9,42.9,28.8,9.7,7.4,258.8,0.0,-0.00037874
2024-04-16,01:30,42.9,13,42.9,42.9,29.3,10.5,7.6,255.2,0.0,-0.00037043
2024-04-16,01:35,42.8,13.4,42.8,42.8,29.9,9.6,7.4,248,0.0,-0.00036059
2024-04-16,01:40,42.7,13.9,42.7,42.7,30.8,10.5,7.1,251,0.0,-0.00037368
2024-04-16,01:45,42.9,13.9,42.9,42.9,30.5,10.8,7.6,255,0.0,-0.0003549
2024-04-16,01:50,42.7,13.7,42.7,42.7,30.4,10.8,7.5,239.4,0.0,-0.00036017
2024-04-16,01:55,42.7,14.1,42.7,42.7,30.9,8.8,5.9,239.9,0.0,-0.00036188
2024-04-16,02:00,42.6,14.4,42.6,42.6,31.5,8.5,6.9,241.2,0.0,-0.00034364
2024-04-16,02:05,42.4,15.3,42.4,42.4,33.0,9.7,6.1,250.3,0.0,-0.00038159
2024-04-16,02:10,43.2,15.9,43.2,43.2,32.9,13.3,8.2,251.9,0.0,-0.00035396
2024-04-16,02:15,43.6,16.6,43.6,43.6,33.3,14,10.1,251.3,0.0,-0.00035211
2024-04-16,02:20,43.4,16.8,43.4,43.4,33.8,13.3,8.5,255.8,0.0,-0.00037902
2024-04-16,02:25,43.2,16.7,43.2,43.2,34.0,12.6,9.4,248.3,0.0,-0.00036783
2024-04-16,02:30,43.2,17.2,41.1,43.2,34.7,14.2,9,248.5,0.0,-0.00038729
2024-04-16,02:35,43.2,17.3,43.2,43.2,34.8,11.7,9.1,247.7,0.0,-0.00036806
2024-04-16,02:40,43.2,17.3,43.2,43.2,34.8,12.6,9.8,244.3,0.0,-0.00036856
2024-04-16,02:45,43.5,17.5,43.5,43.5,34.7,14,10.5,242.8,0.0,-0.00035848
2024-04-16,02:50,43.4,17.5,43.4,43.4,35.0,13.7,9.5,246.3,0.0,-0.00037195
2024-04-16,02:55,43.5,17.5,43.5,43.5,34.7,14.9,9.6,243.8,0.0,-0.00035893
2024-04-16,03:00,43.7,17.5,43.7,43.7,34.5,14.2,10.4,245.9,0.0,-0.00036706
2024-04-16,03:05,43.9,17.5,43.9,43.9,34.3,14.7,10.6,247.8,0.0,-0.00035479
2024-04-16,03:10,43.5,17.7,43.5,43.5,35.1,12.1,8.8,270.5,0.0,-0.00039717
2024-04-16,03:15,43.5,17.6,43.5,43.5,34.8,13,9.4,276.6,0.0,-0.00037467
2024-04-16,03:20,43.6,17.5,43.6,43.6,34.7,14.6,11.4,264.1,0.0,-0.00037542
2024-04-16,03:25,43.5,17.4,41.6,43.5,34.7,16.4,12.2,264.5,0.0,-0.00036783
2024-04-16,03:30,43.7,17.4,41.9,43.7,34.4,16.2,12.3,269.2,0.0,-0.00036237
2024-04-16,03:35,43.7,17.4,41.2,43.7,34.4,16,12.2,271.3,0.0,-0.00036761
2024-04-16,03:40,44.1,17.5,42.7,44.1,34.1,17.6,14.4,265.6,0.0,-0.00034841
2024-04-16,03:45,43.6,17.5,41.9,43.6,34.7,18.7,12.6,260.5,0.0,-0.00038264
2024-04-16,03:50,43.4,17.6,40.9,43.4,35.0,17.6,13.2,256.2,0.0,-0.00037865
2024-04-16,03:55,43.2,17.6,41.4,43.2,35.4,17.4,13.2,253.2,0.0,-0.00036946
2024-04-16,04:00,43.1,17.6,41.3,43.1,35.6,13.7,12,253.6,0.0,-0.00036907
2024-04-16,04:05,43,17.5,40.0,43,35.4,18.3,13.7,255.4,0.0,-0.00035835
2024-04-16,04:10,43.1,17.6,40.9,43.1,35.5,19.4,14.3,252.1,0.0,-0.00035573
2024-04-16,04:15,42.7,17.6,41.3,42.7,36.0,18.3,13.1,251.6,0.0,-0.00037036
2024-04-16,04:20,42.4,17.4,42.4,42.4,36.3,16.4,13.3,260.6,0.0,-0.00036254
2024-04-16,04:25,42.5,17.4,40.4,42.5,36.0,19.6,14.6,260.6,0.0,-0.00036236
2024-04-16,04:30,42.4,17.4,39.7,42.4,36.2,18.1,14.3,259.4,0.0,-0.00036188
2024-04-16,04:35,42.7,17.4,39.4,42.7,35.7,21.7,17.1,255,0.0,-0.00034519
2024-04-16,04:40,42.5,17.4,40.0,42.5,36.0,20.3,15.2,256.6,0.0,-0.00036084
2024-04-16,04:45,42.6,17.5,40.5,42.6,36.0,22.1,16.2,259.5,0.0,-0.0003525
2024-04-16,04:50,42.2,17.3,40.1,42.2,36.1,21.7,15.3,259.6,0.0,-0.00036612
2024-04-16,04:55,41.9,17.3,39.9,41.9,36.7,17.2,14.5,266.2,0.0,-0.00036647
2024-04-16,05:00,41.8,17.1,39.6,41.8,36.5,18.7,15,262.2,0.0,-0.00036223
2024-04-16,05:05,41.9,17,39.4,41.9,36.2,18.3,14.7,261.1,0.0,-0.00034905
2024-04-16,05:10,41.9,17,39.0,41.9,36.2,18.9,15.2,264.2,0.0,-0.00035801
2024-04-16,05:15,41.8,17,39.1,41.8,36.3,18.1,14.6,260.8,0.0,-0.00036409
2024-04-16,05:20,41.9,16.9,38.9,41.9,36.1,19.2,14.9,260.5,0.0,-0.00035509
2024-04-16,05:25,42.1,16.9,38.8,42.1,35.8,20.3,15.8,263.7,0.0,-0.00035849
2024-04-16,05:30,42,17,39.3,42,36.0,18.9,15.3,258.3,0.0,-0.00035947
2024-04-16,05:35,41.5,16.9,38.9,41.5,36.6,17.6,14.2,252.6,0.0,-0.00037189
2024-04-16,05:40,41.9,17,40.1,41.9,36.2,19.2,15.4,258.4,0.0,-0.00035761
2024-04-16,05:45,41.7,17.1,39.3,41.7,36.6,19.8,16.6,257.2,0.0,-0.00035696
2024-04-16,05:50,41.5,17.2,38.6,41.5,37.2,18.9,16.1,253.6,0.0,-0.00035364
2024-04-16,05:55,41.4,17.3,38.7,41.4,37.4,22.6,16.9,261.9,0.0,-0.00035632
2024-04-16,06:00,41.6,17.3,38.6,41.6,37.0,25.5,18.7,257.6,0.0,-0.00033842
2024-04-16,06:05,41.8,17.7,38.5,41.8,37.4,24.9,19.2,256.3,0.0,-0.00031985
2024-04-16,06:10,41.6,17.6,38.2,41.6,37.7,26,19.2,256.9,0.0,-0.00026499
2024-04-16,06:15,41.5,17.6,37.6,41.5,37.8,25.3,19.4,258.8,0.0,-0.00013656
2024-04-16,06:20,41.8,17.7,38.7,41.8,37.4,24.8,19.7,254.5,0.0,0.00014334
2024-04-16,06:25,41.9,17.7,38.9,41.9,37.3,22.1,17.2,264.2,0.0,0.00061461
2024-04-16,06:30,42.6,17.7,38.8,42.6,36.3,23.2,17.6,262.2,0.0,0.00219052
2024-04-16,06:35,42.7,17.7,40.1,42.7,36.2,19,15.5,263.7,0.0,0.006953049
2024-04-16,06:40,42.7,17.8,41.2,42.7,36.3,20.1,15.9,259.3,0.0,0.01189412
2024-04-16,06:45,43.1,17.7,40.0,43.1,35.6,25.8,18.3,267,0.0,0.01681045
2024-04-16,06:50,43.3,17.8,40.7,43.3,35.6,23.5,18.1,267.7,0.0,0.02178327
2024-04-16,06:55,43.3,17.8,39.1,43.3,35.5,25.3,18.8,267,0.0,0.0264907
2024-04-16,07:00,43.1,18,40.1,43.1,36.0,25.6,19.7,272.3,0.0,0.03141196
2024-04-16,07:05,43.3,18.1,39.4,43.3,36.0,25.8,20.4,271,0.0,0.03657311
2024-04-16,07:10,43.5,18.1,40.5,43.5,35.8,26.5,20.7,269.3,0.0,0.04169713
2024-04-16,07:15,43.6,18.1,41.1,43.6,35.5,25.6,19.1,275.6,0.0,0.04680297
2024-04-16,07:20,44,18.1,40.6,44,35.0,23.5,18.7,269.4,0.0,0.05191621
2024-04-16,07:25,44.5,18.2,41.1,44.5,34.5,25.6,19.4,268,0.0,0.0571033
2024-04-16,07:30,44.7,18.2,41.5,44.7,34.2,26.5,19.6,270.5,0.0,0.06241311
2024-04-16,07:35,45,18.2,42.2,45,33.9,23.7,18.6,266.9,0.0,0.06772947
2024-04-16,07:40,45.5,18.4,42.9,45.5,33.6,23.7,18.5,260.6,0.0,0.07303961
2024-04-16,07:45,45.7,18.4,42.8,45.7,33.3,28.5,20.3,268.6,0.0,0.07849432
2024-04-16,07:50,46.3,18.3,43.0,46.3,32.4,27.6,21.1,264.8,0.0,0.08390343
2024-04-16,07:55,46.6,18.3,43.6,46.6,32.0,27.2,21.2,264.2,0.0,0.0895562
2024-04-16,08:00,46.9,18.2,44.1,46.9,31.6,30.6,24.6,264,0.0,0.09517843
2024-04-16,08:05,47.1,18.2,43.0,47.1,31.2,30.6,24.7,262.9,0.0,0.1007763
2024-04-16,08:10,47.4,18.1,43.1,47.4,30.8,33,24.8,265,0.0,0.1064157
2024-04-16,08:15,47.6,18.2,45.2,47.6,30.7,30.6,24,270.3,0.0,0.1121022
2024-04-16,08:20,47.9,18.3,45.2,47.9,30.6,32.6,24.8,266,0.0,0.1175189
2024-04-16,08:25,48.3,18.1,45.2,48.3,29.8,32.4,24.5,267.2,0.0,0.1229633
2024-04-16,08:30,48.9,18.6,45.7,48.9,29.7,28,21,273.2,0.0,0.128534
2024-04-16,08:35,48.7,18.7,45.7,48.7,30.1,31,23.9,270.7,0.0,0.1340993
2024-04-16,08:40,48.9,18.8,46.7,48.9,30.1,29.8,21.3,290.6,0.0,0.1396375
2024-04-16,08:45,49.1,18.9,46.9,49.1,29.9,29.6,22.2,280.1,0.0,0.1454252
2024-04-16,08:50,49.9,19.1,47.9,49.9,29.3,30.8,22.2,272.2,0.0,0.1510138
2024-04-16,08:55,50,19.1,47.7,50,29.2,35.1,24.1,275.4,0.0,0.1567312
2024-04-16,09:00,50.3,19,50.3,50.3,28.7,30.3,23.2,275.7,0.0,0.1621888
2024-04-16,09:05,50.6,19.1,50.6,50.6,28.5,33.5,23,275.4,0.0,0.1677413
2024-04-16,09:10,51.1,19.3,51.1,51.1,28.2,32.4,23.4,273.1,0.0,0.1726323
2024-04-16,09:15,50.8,19.3,50.8,50.8,28.5,31.7,23.1,278.7,0.0,0.1781806
2024-04-16,09:20,50.8,19.4,50.8,50.8,28.6,32.1,25.7,277.2,0.0,0.183539
2024-04-16,09:25,51.3,19.2,51.3,51.3,27.9,31.7,25.5,276,0.0,0.1886933
2024-04-16,09:30,51.6,19.3,51.6,51.6,27.8,32.3,25.5,275.5,0.0,0.1937298
2024-04-16,09:35,51.9,19.3,51.9,51.9,27.5,29.2,23.9,279.9,0.0,0.1987461
2024-04-16,09:40,52.2,19.3,52.2,52.2,27.1,29,23.4,284.6,0.0,0.2039938
2024-04-16,09:45,52.4,19.3,52.4,52.4,26.9,32.6,27.4,277.9,0.0,0.2091625
2024-04-16,09:50,52.5,19.9,52.5,52.5,27.5,33.7,23.8,282.5,0.0,0.2135425
2024-04-16,09:55,53,19.8,53.0,53,26.9,29.2,23.5,279,0.0,0.2187096
2024-04-16,10:00,52.8,20.1,52.8,52.8,27.5,33.2,25.2,281.4,0.0,0.2234666
2024-04-16,10:05,53.2,20.7,53.2,53.2,27.8,29.9,24.8,281.1,0.0,0.2282857
2024-04-16,10:10,54.1,21,54.1,54.1,27.2,27.6,21.4,285.8,0.0,0.2320099
2024-04-16,10:15,53.9,20.5,53.9,53.9,26.7,35.7,23.6,276.7,0.0,0.2272504
2024-04-16,10:20,54.2,20.4,54.2,54.2,26.4,34.4,23.7,281.7,0.0,0.2418303
2024-04-16,10:25,54.8,20.3,54.8,54.8,25.8,29.9,22.7,281.8,0.0,0.2454606
2024-04-16,10:30,54.5,20.9,54.5,54.5,26.6,33.5,26.2,272.9,0.0,0.2487879
2024-04-16,10:35,55.5,20,55.5,55.5,24.8,33.7,22.7,273.5,0.0,0.2528919
2024-04-16,10:40,56.3,20.5,56.3,56.3,24.5,33.3,22.7,277.9,0.0,0.2559528
2024-04-16,10:45,56,20.8,56.0,56,25.1,29.6,23.6,271.7,0.0,0.2607406
2024-04-16,10:50,55.8,19.9,55.8,55.8,24.3,33.5,26,277.6,0.0,0.265146
2024-04-16,10:55,56.8,20.9,56.8,56.8,24.5,34.2,24.2,274.9,0.0,0.2684614
2024-04-16,11:00,57.5,20.6,57.5,57.5,23.6,31.9,23,272.2,0.0,0.2712191
2024-04-16,11:05,56.9,20.3,56.9,56.9,23.9,30.8,24.5,275.2,0.0,0.2736891
2024-04-16,11:10,57.2,20.7,57.2,57.2,24.1,34.8,24,276.4,0.0,0.2762775
2024-04-16,11:15,57.7,20.6,57.7,57.7,23.4,31.9,23.6,263.9,0.0,0.2799951
2024-04-16,11:20,58.8,20.6,58.8,58.8,22.5,30.8,23,269.7,0.0,0.2839927
2024-04-16,11:25,58.7,21,58.7,58.7,23.0,31.2,22.6,269.4,0.0,0.2871883
2024-04-16,11:30,58.4,21.2,58.4,58.4,23.5,32.4,23.3,260.2,0.0,0.2906464
2024-04-16,11:35,60.3,19.6,60.3,60.3,20.5,27.4,21.1,265.5,0.0,0.2938651
2024-04-16,11:40,60.3,19.4,60.3,60.3,20.4,26.4,19.4,275.2,0.0,0.2953684
2024-04-16,11:45,60.9,19.4,60.9,60.9,19.9,29.6,20.4,265.3,0.0,0.2974005
2024-04-16,11:50,61.1,19.1,61.1,61.1,19.5,25.1,20.6,268.1,0.0,0.299585
2024-04-16,11:55,62.3,19.6,62.3,62.3,19.1,24.4,18.6,265.5,0.0,0.3016512
2024-04-16,12:00,62.4,18.9,62.4,62.4,18.5,23.5,17.4,262,0.0,0.3027118
2024-04-16,12:05,62,18.6,62.0,62,18.5,26.4,19.4,264.7,0.0,0.3045563
2024-04-16,12:10,61.9,19.4,61.9,61.9,19.2,26.5,21.3,256.1,0.0,0.3062721
2024-04-16,12:15,61.8,16.6,61.8,61.8,17.1,28,21.8,257.2,0.0,0.307985
2024-04-16,12:20,62.1,16.9,62.1,62.1,17.2,28,21.2,263.6,0.0,0.3096563
2024-04-16,12:25,62.9,16.6,62.9,62.9,16.4,26.7,21.4,272.5,0.0,0.3109457
2024-04-16,12:30,63.6,16.2,63.6,63.6,15.8,24.9,19.1,267.5,0.0,0.3125769
2024-04-16,12:35,63.8,16.5,63.8,63.8,15.9,28,20.9,244.7,0.0,0.3130508
2024-04-16,12:40,64.4,16.4,64.4,64.4,15.4,26.9,20.8,250.7,0.0,0.3138548
2024-04-16,12:45,64.9,15,64.9,64.9,14.3,25.1,18.7,255.6,0.0,0.3140844
2024-04-16,12:50,65,14.2,65.0,65,13.7,28.7,20.8,259.7,0.0,0.3151396
2024-04-16,12:55,65.8,16.2,65.8,65.8,14.6,23.5,18.1,253.3,0.0,0.3147201
2024-04-16,13:00,65.7,15.4,65.7,65.7,14.1,26.4,19.5,264.1,0.0,0.3146719
2024-04-16,13:05,65.7,15.2,65.7,65.7,14.0,26,18.4,255,0.0,0.3143352
2024-04-16,13:10,66.3,13.5,66.3,66.3,12.8,25.6,17.8,259.1,0.0,0.3144896
2024-04-16,13:15,66.7,13.8,66.7,66.7,12.8,22.6,16.1,282.2,0.0,0.3141299
2024-04-16,13:20,66.9,14.9,66.9,66.9,13.3,21.5,16.4,266.1,0.0,0.3138555
2024-04-16,13:25,66.1,15.2,66.1,66.1,13.8,23.5,18,265.2,0.0,0.3129797
2024-04-16,13:30,67.2,17.3,67.2,67.2,14.6,19.4,15.4,263.9,0.0,0.3108683
2024-04-16,13:35,66.6,15.2,66.6,66.6,13.6,22.4,16.2,267.7,0.0,0.3102765
2024-04-16,13:40,67.5,15.9,67.5,67.5,13.6,23.3,16,263.4,0.0,0.3089924
2024-04-16,13:45,67.3,16.9,67.3,67.3,14.3,20.5,14.7,269.8,0.0,0.3067489
2024-04-16,13:50,67.8,16.5,67.8,67.8,13.8,26.9,15.6,258.8,0.0,0.3053699
2024-04-16,13:55,66.7,17,66.7,66.7,14.6,23.9,16.9,262,0.0,0.3033343
2024-04-16,14:00,66.5,18.1,66.5,66.5,15.5,23,18.5,250.9,0.0,0.3017178
2024-04-16,14:05,66.6,16.9,66.6,66.6,14.7,21.5,16.6,273.3,0.0,0.2992243
2024-04-16,14:10,67.8,17.6,67.8,67.8,14.5,22.8,14.8,260,0.0,0.2975985
2024-04-16,14:15,68.6,17.3,68.6,68.6,13.9,20.8,13.7,266.9,0.0,0.2952605
2024-04-16,14:20,68.1,17.8,68.1,68.1,14.5,20.3,14.7,282.5,0.0,0.2927898
2024-04-16,14:25,67.7,17.1,67.7,67.7,14.2,20.6,15.5,253.6,0.0,0.2908117
2024-04-16,14:30,67.7,16.9,67.7,67.7,14.1,20.8,16,257.8,0.0,0.2886349
2024-04-16,14:35,68.1,15.9,68.1,68.1,13.3,26,15.9,270.6,0.0,0.2858307
2024-04-16,14:40,67.8,16.9,67.8,67.8,14.0,19.4,13.8,262.1,0.0,0.2825682
2024-04-16,14:45,67.8,16.7,67.8,67.8,13.9,22.3,16.2,249,0.0,0.2787971
2024-04-16,14:50,68,15.4,68.0,68,13.1,22.3,15.6,261.5,0.0,0.2760348
2024-04-16,14:55,67.8,16,67.8,67.8,13.5,18.7,12.4,278,0.0,0.2721579
2024-04-16,15:00,67.8,16.6,67.8,67.8,13.9,22.3,14.6,274.9,0.0,0.269096
2024-04-16,15:05,68.9,14.7,68.9,68.9,12.3,20.1,14.6,262,0.0,0.2655626
2024-04-16,15:10,67.9,16.4,67.9,67.9,13.7,19.6,13.7,271.9,0.0,0.2619582
2024-04-16,15:15,68,15.5,68.0,68,13.2,20.6,14,261.4,0.0,0.258201
2024-04-16,15:20,69.1,16,69.1,69.1,12.9,17.8,13.2,251.6,0.0,0.2546575
2024-04-16,15:25,68.1,15.9,68.1,68.1,13.3,20.5,15.9,261.6,0.0,0.2510553
2024-04-16,15:30,68.3,16.6,68.3,68.3,13.6,19.9,15.9,245.5,0.0,0.2472097
2024-04-16,15:35,68.3,16.3,68.3,68.3,13.4,20.3,15.5,258.5,0.0,0.2433591
2024-04-16,15:40,67.9,15.6,67.9,67.9,13.3,20.1,14.6,262.5,0.0,0.2389718
2024-04-16,15:45,67.9,14.5,67.9,67.9,12.6,20.5,15.4,244.1,0.0,0.2345615
2024-04-16,15:50,67.1,14.6,67.1,67.1,13.0,19.4,13.4,266.5,0.0,0.2307056
2024-04-16,15:55,67.6,15.6,67.6,67.6,13.4,21.2,16.4,256.3,0.0,0.2260758
2024-04-16,16:00,67.8,16.3,67.8,67.8,13.7,21,15.7,249.3,0.0,0.2217671
2024-04-16,16:05,67.7,14.4,67.7,67.7,12.6,21.9,14.5,260,0.0,0.2167922
2024-04-16,16:10,67.6,14.1,67.6,67.6,12.5,20.1,14.5,262.9,0.0,0.2122943
2024-04-16,16:15,67.7,14.8,67.7,67.7,12.9,18.7,14.2,258.9,0.0,0.2078543
2024-04-16,16:20,66.9,14.5,66.9,66.9,13.1,16.4,12.3,247.3,0.0,0.2025934
2024-04-16,16:25,67.9,15.7,67.9,67.9,13.3,19.8,13.9,241.6,0.0,0.1975429
2024-04-16,16:30,67.3,14.5,67.3,67.3,12.9,18.7,13.1,274.4,0.0,0.1926234
2024-04-16,16:35,66.7,15.9,66.7,66.7,14.0,17.8,13.6,261.7,0.0,0.1873703
2024-04-16,16:40,67.6,17.3,67.6,67.6,14.4,17.4,14.1,264.3,0.0,0.1822755
2024-04-16,16:45,67.4,15.9,67.4,67.4,13.6,16.7,13.6,263,0.0,0.1773005
2024-04-16,16:50,67.1,16.6,67.1,67.1,14.2,22.4,14.4,249.6,0.0,0.1719645
2024-04-16,16:55,67.4,16.7,67.4,67.4,14.1,22.3,15.4,257.2,0.0,0.1669093
2024-04-16,17:00,67.1,15.7,67.1,67.1,13.7,19.2,14.6,253.7,0.0,0.1617631